When you browse on this site, cookies collect data to enhance your experience and personalize the content and advertising you see.
Visit our Privacy Policy to learn more. By continuing to use the site, you agree to this use of cookies and data.

Stündliche Wetter Nam Dinh

Heute, 8 August, Samstag

Zeit Temperatur Niederschläge Wind Luftdruck Luftfeuchtigkeit
00:00 +29°C° 0 mm 2 m/S 754 mmHg 88%
01:00 +29°C° 0 mm 2 m/S 754 mmHg 88%
02:00 +29°C° 0 mm 2 m/S 753 mmHg 88%
03:00 +29°C° 0 mm 2 m/S 753 mmHg 88%
04:00 +28°C° 0 mm 2 m/S 753 mmHg 89%
05:00 +29°C° 0.1 mm 2 m/S 753 mmHg 87%
06:00 +30°C° 0.1 mm 2 m/S 753 mmHg 86%
07:00 +30°C° 0.1 mm 2 m/S 753 mmHg 84%
08:00 +31°C° 0.4 mm 2 m/S 753 mmHg 80%
09:00 +33°C° 0.4 mm 3 m/S 753 mmHg 76%
10:00 +34°C° 0.4 mm 3 m/S 754 mmHg 71%
11:00 +35°C° 0.2 mm 3 m/S 753 mmHg 70%
12:00 +35°C° 0.2 mm 4 m/S 752 mmHg 68%
13:00 +36°C° 0.2 mm 4 m/S 752 mmHg 66%
14:00 +35°C° 0 mm 4 m/S 751 mmHg 68%
15:00 +35°C° 0 mm 4 m/S 750 mmHg 69%
16:00 +34°C° 0 mm 5 m/S 750 mmHg 71%
17:00 +33°C° 0 mm 4 m/S 750 mmHg 76%
18:00 +32°C° 0 mm 4 m/S 750 mmHg 80%
19:00 +30°C° 0 mm 3 m/S 750 mmHg 85%
20:00 +30°C° 0 mm 3 m/S 751 mmHg 87%
21:00 +30°C° 0 mm 3 m/S 752 mmHg 88%
22:00 +29°C° 0 mm 2 m/S 752 mmHg 89%
23:00 +29°C° 0 mm 2 m/S 752 mmHg 89%

Morgen, 9 August, Sonntag

Zeit Temperatur Niederschläge Wind Luftdruck Luftfeuchtigkeit
00:00 +29°C° 0 mm 2 m/S 752 mmHg 89%
01:00 +29°C° 0 mm 2 m/S 751 mmHg 90%
02:00 +29°C° 0 mm 2 m/S 751 mmHg 90%
03:00 +29°C° 0 mm 2 m/S 751 mmHg 91%
04:00 +29°C° 0 mm 2 m/S 751 mmHg 91%
05:00 +30°C° 0 mm 2 m/S 751 mmHg 89%
06:00 +30°C° 0 mm 2 m/S 751 mmHg 88%
07:00 +31°C° 0 mm 2 m/S 751 mmHg 86%
08:00 +33°C° 0 mm 3 m/S 751 mmHg 80%
09:00 +34°C° 0 mm 3 m/S 751 mmHg 75%
10:00 +36°C° 0 mm 3 m/S 752 mmHg 69%
11:00 +36°C° 0 mm 3 m/S 751 mmHg 66%
12:00 +37°C° 0 mm 3 m/S 750 mmHg 63%
13:00 +37°C° 0 mm 3 m/S 750 mmHg 61%
14:00 +37°C° 0 mm 3 m/S 749 mmHg 63%
15:00 +36°C° 0 mm 4 m/S 748 mmHg 66%
16:00 +36°C° 0 mm 4 m/S 748 mmHg 68%
17:00 +35°C° 0 mm 4 m/S 748 mmHg 73%
18:00 +33°C° 0 mm 4 m/S 748 mmHg 79%
19:00 +32°C° 0 mm 4 m/S 748 mmHg 85%
20:00 +31°C° 0 mm 3 m/S 749 mmHg 85%
21:00 +31°C° 0 mm 3 m/S 750 mmHg 85%
22:00 +30°C° 0 mm 3 m/S 751 mmHg 85%
23:00 +30°C° 0.1 mm 3 m/S 751 mmHg 86%

übermorgen, 10 August, Montag

Zeit Temperatur Niederschläge Wind Luftdruck Luftfeuchtigkeit
00:00 +30°C° 0.1 mm 3 m/S 750 mmHg 87%
01:00 +30°C° 0.1 mm 2 m/S 750 mmHg 87%
02:00 +30°C° 0.1 mm 3 m/S 750 mmHg 88%
03:00 +30°C° 0.1 mm 3 m/S 749 mmHg 88%
04:00 +30°C° 0.1 mm 3 m/S 749 mmHg 89%
05:00 +30°C° 0 mm 3 m/S 749 mmHg 88%
06:00 +30°C° 0 mm 3 m/S 750 mmHg 87%
07:00 +31°C° 0 mm 3 m/S 750 mmHg 86%
08:00 +32°C° 0 mm 2 m/S 750 mmHg 81%
09:00 +34°C° 0 mm 2 m/S 751 mmHg 76%
10:00 +35°C° 0 mm 2 m/S 751 mmHg 71%
11:00 +36°C° 0 mm 2 m/S 750 mmHg 67%
12:00 +36°C° 0 mm 1 m/S 750 mmHg 64%
13:00 +37°C° 0 mm 1 m/S 749 mmHg 61%
14:00 +36°C° 0 mm 1 m/S 749 mmHg 62%
15:00 +37°C° 0 mm 2 m/S 749 mmHg 63%
16:00 +37°C° 0 mm 2 m/S 748 mmHg 64%
17:00 +35°C° 0.6 mm 2 m/S 749 mmHg 71%
18:00 +34°C° 0.6 mm 2 m/S 749 mmHg 77%
19:00 +31°C° 0.6 mm 2 m/S 750 mmHg 84%
20:00 +31°C° 0.5 mm 2 m/S 751 mmHg 85%
21:00 +31°C° 0.5 mm 3 m/S 751 mmHg 86%
22:00 +30°C° 0.5 mm 3 m/S 752 mmHg 88%
23:00 +30°C° 0 mm 3 m/S 752 mmHg 87%

11 August, Dienstag

Zeit Temperatur Niederschläge Wind Luftdruck Luftfeuchtigkeit
00:00 +30°C° 0 mm 3 m/S 751 mmHg 87%
01:00 +30°C° 0 mm 3 m/S 751 mmHg 87%
02:00 +30°C° 0 mm 3 m/S 751 mmHg 88%
03:00 +30°C° 0 mm 3 m/S 750 mmHg 88%
04:00 +30°C° 0 mm 3 m/S 750 mmHg 89%
05:00 +30°C° 0 mm 2 m/S 750 mmHg 88%
06:00 +30°C° 0 mm 2 m/S 751 mmHg 87%
07:00 +31°C° 0 mm 2 m/S 751 mmHg 86%
08:00 +32°C° 0 mm 2 m/S 752 mmHg 79%
09:00 +35°C° 0 mm 2 m/S 752 mmHg 73%
10:00 +35°C° 0 mm 1 m/S 752 mmHg 67%
11:00 +37°C° 0.1 mm 2 m/S 752 mmHg 63%
12:00 +38°C° 0.1 mm 2 m/S 751 mmHg 59%
13:00 +39°C° 0.1 mm 2 m/S 751 mmHg 55%
14:00 +38°C° 1.1 mm 2 m/S 750 mmHg 60%
15:00 +37°C° 1.1 mm 3 m/S 750 mmHg 65%
16:00 +36°C° 1.1 mm 4 m/S 749 mmHg 71%
17:00 +35°C° 0.1 mm 3 m/S 750 mmHg 75%
18:00 +33°C° 0.1 mm 3 m/S 750 mmHg 79%
19:00 +31°C° 0.1 mm 3 m/S 751 mmHg 84%
20:00 +31°C° 0.1 mm 3 m/S 751 mmHg 84%
21:00 +31°C° 0.1 mm 3 m/S 752 mmHg 84%
22:00 +31°C° 0.1 mm 3 m/S 753 mmHg 84%
23:00 +31°C° 0.3 mm 3 m/S 753 mmHg 85%

12 August, Mittwoch

Zeit Temperatur Niederschläge Wind Luftdruck Luftfeuchtigkeit
00:00 +30°C° 0.3 mm 3 m/S 752 mmHg 86%
01:00 +30°C° 0.3 mm 3 m/S 752 mmHg 87%
02:00 +30°C° 0 mm 3 m/S 752 mmHg 88%
03:00 +30°C° 0 mm 2 m/S 752 mmHg 89%
04:00 +30°C° 0 mm 2 m/S 752 mmHg 90%
05:00 +30°C° 0 mm 2 m/S 752 mmHg 89%
06:00 +30°C° 0 mm 2 m/S 752 mmHg 88%
07:00 +31°C° 0 mm 2 m/S 752 mmHg 87%
08:00 +32°C° 0.2 mm 2 m/S 752 mmHg 81%
09:00 +34°C° 0.2 mm 2 m/S 753 mmHg 75%
10:00 +36°C° 0.2 mm 2 m/S 753 mmHg 68%
11:00 +37°C° 0 mm 2 m/S 752 mmHg 64%
12:00 +38°C° 0 mm 2 m/S 752 mmHg 59%
13:00 +39°C° 0 mm 2 m/S 751 mmHg 54%
14:00 +38°C° 0 mm 3 m/S 751 mmHg 58%
15:00 +37°C° 0 mm 4 m/S 750 mmHg 62%
16:00 +36°C° 0 mm 4 m/S 749 mmHg 66%
17:00 +35°C° 0 mm 4 m/S 750 mmHg 71%
18:00 +33°C° 0 mm 4 m/S 750 mmHg 75%
19:00 +32°C° 0 mm 4 m/S 751 mmHg 79%
20:00 +32°C° 0.1 mm 4 m/S 751 mmHg 80%
21:00 +32°C° 0.1 mm 4 m/S 752 mmHg 81%
22:00 +32°C° 0.1 mm 4 m/S 753 mmHg 81%
23:00 +32°C° 0.8 mm 4 m/S 753 mmHg 82%

13 August, Donnerstag

Zeit Temperatur Niederschläge Wind Luftdruck Luftfeuchtigkeit
00:00 +32°C° 0.8 mm 5 m/S 753 mmHg 82%
01:00 +32°C° 0.8 mm 5 m/S 752 mmHg 83%
02:00 +30°C° 0.2 mm 5 m/S 752 mmHg 84%
03:00 +30°C° 0.2 mm 5 m/S 752 mmHg 85%
04:00 +30°C° 0.2 mm 4 m/S 751 mmHg 87%
05:00 +30°C° 0 mm 4 m/S 752 mmHg 86%
06:00 +30°C° 0 mm 3 m/S 752 mmHg 86%
07:00 +30°C° 0 mm 3 m/S 752 mmHg 86%
08:00 +31°C° 0 mm 2 m/S 752 mmHg 81%
09:00 +32°C° 0 mm 2 m/S 752 mmHg 76%
10:00 +34°C° 0 mm 2 m/S 752 mmHg 72%
11:00 +35°C° 0 mm 2 m/S 752 mmHg 68%
12:00 +35°C° 0 mm 1 m/S 751 mmHg 64%
13:00 +36°C° 0 mm 1 m/S 750 mmHg 61%
14:00 +37°C° 0 mm 2 m/S 750 mmHg 63%
15:00 +36°C° 0 mm 4 m/S 749 mmHg 66%
16:00 +35°C° 0 mm 5 m/S 749 mmHg 68%
17:00 +34°C° 0 mm 5 m/S 749 mmHg 72%
18:00 +33°C° 0 mm 5 m/S 750 mmHg 76%
19:00 +32°C° 0 mm 5 m/S 750 mmHg 80%
20:00 +32°C° 0.6 mm 6 m/S 751 mmHg 80%
21:00 +32°C° 0.6 mm 7 m/S 751 mmHg 81%
22:00 +32°C° 0.6 mm 7 m/S 752 mmHg 81%
23:00 +32°C° 0.2 mm 7 m/S 752 mmHg 81%
Mehr zeigen